Location: Fort Wayne
(41.1310°N, 85.1290°W)
Time: 15:59:06
(UTC-04:00)

ISS - Visible Passes

Search period start: 28 May 2015 00:00
Search period end: 07 June 2015 00:00
Orbit: 399 x 404 km, 51.6° (Epoch: 28 May)

Date Brightness Start Highest point End Pass type
(mag) Time Alt. Az. Time Alt. Az. Time Alt. Az.
28 May -0.5 01:34:53 18° NNE 01:34:53 18° NNE 01:36:08 10° NE visible
28 May -0.2 03:08:48 10° NW 03:10:30 13° N 03:12:12 10° NNE visible
28 May -0.3 04:45:34 10° NNW 04:47:53 18° NNE 04:50:14 10° ENE visible
29 May -0.3 00:42:46 12° NE 00:42:46 12° NE 00:43:02 10° NE visible
29 May -0.2 02:15:16 11° NW 02:16:58 15° N 02:18:56 10° NNE visible
29 May -0.1 03:52:26 10° NNW 03:54:22 15° N 03:56:20 10° NE visible
29 May -1.8 05:28:21 10° NW 05:31:27 40° NNE 05:34:34 10° E visible
30 May -0.5 01:22:31 17° NW 01:23:27 18° NNW 01:25:49 10° NNE visible
30 May 0.0 02:59:09 10° NNW 03:00:49 13° N 03:02:29 10° NE visible
30 May -0.9 04:35:16 10° NW 04:38:04 26° NNE 04:40:53 10° E visible
30 May -3.3 22:50:15 10° SW 22:53:23 50° SE 22:56:33 10° ENE visible
31 May -1.0 00:27:12 10° W 00:29:58 25° NNW 00:32:44 10° NE visible
31 May 0.1 02:05:35 10° NNW 02:07:14 13° N 02:08:53 10° NNE visible
31 May -0.4 03:42:11 10° NNW 03:44:35 19° NNE 03:47:02 10° ENE visible
31 May -3.3 05:18:07 10° NW 05:21:24 85° NE 05:24:40 10° SE visible
31 May -2.3 21:57:32 10° SSW 22:00:14 25° SE 22:02:59 10° ENE visible
31 May -1.8 23:33:29 10° W 23:36:33 38° NNW 23:39:37 10° NE visible
01 Jun 0.0 01:11:45 10° NW 01:13:39 14° N 01:15:33 10° NNE visible
01 Jun -0.1 02:49:02 10° NNW 02:51:03 15° N 02:53:05 10° NE visible
01 Jun -2.2 04:24:56 10° NW 04:28:05 45° NNE 04:31:15 10° ESE visible
01 Jun -3.0 22:39:58 10° WSW 22:43:12 68° NW 22:46:27 10° NE visible
02 Jun -0.3 00:17:48 10° WNW 00:20:05 17° NNW 00:22:21 10° NNE visible
02 Jun 0.1 01:55:46 10° NNW 01:57:28 13° N 01:59:11 10° NE visible
02 Jun -1.2 03:31:48 10° NW 03:34:41 28° NNE 03:37:35 10° E visible
02 Jun -2.9 05:08:05 10° WNW 05:11:10 40° SW 05:14:14 10° SSE visible
02 Jun -3.4 21:46:44 10° SW 21:49:56 60° SE 21:53:08 10° ENE visible
02 Jun -0.7 23:23:53 10° WNW 23:26:34 23° NNW 23:29:14 10° NE visible
03 Jun 0.1 01:02:14 10° NNW 01:03:52 13° N 01:05:29 10° NNE visible
03 Jun -0.6 02:38:41 10° NNW 02:41:12 20° NNE 02:43:43 10° ENE visible
03 Jun -3.5 04:14:40 10° NW 04:17:57 82° SW 04:21:12 10° SE visible
03 Jun -1.5 22:30:05 10° W 22:33:06 34° NNW 22:36:07 10° NE visible
04 Jun 0.0 00:08:26 10° NW 00:10:15 14° N 00:12:03 10° NNE visible
04 Jun -0.2 01:45:32 10° NNW 01:47:39 16° NNE 01:49:46 10° NE visible
04 Jun -2.6 03:21:25 10° NW 03:24:37 52° NNE 03:25:58 29° E visible
04 Jun -1.2 05:02:29 12° SSW 05:02:29 12° SSW 05:03:00 10° S visible
04 Jun -2.6 21:36:30 10° WSW 21:39:42 58° NNW 21:42:55 10° NE visible
04 Jun -0.2 23:14:27 10° NW 23:16:38 16° NNW 23:18:48 10° NNE visible
05 Jun -0.1 00:52:16 10° NNW 00:54:02 14° N 00:55:48 10° NE visible
05 Jun -1.3 02:28:15 10° NW 02:30:30 28° N 02:30:30 28° N visible
05 Jun -0.6 22:20:29 10° WNW 22:23:04 21° NNW 22:25:39 10° NNE visible
05 Jun -0.1 23:58:47 10° NNW 00:00:23 13° N 00:02:00 10° NNE visible
06 Jun -0.9 01:35:06 10° NNW 01:37:42 22° NNE 01:37:54 21° NNE visible
06 Jun -0.2 23:04:59 10° NW 23:06:44 14° N 23:08:29 10° NNE visible
